| time (UTC) | temp F | wind direction | speed MPH | gust MPH | rain 1hr in | rain 24hr in | rain mn in | humidity % | barometer mb |
| 20260508133904 | 73 | 221 | 1.0 | 3.0 | 0.00 | 0.02 | 0.00 | 55 | 1014.1 |
| 20260508133404 | 73 | 280 | 1.0 | 6.0 | 0.00 | 0.02 | 0.00 | 54 | 1014.3 |
| 20260508131905 | 72 | 38 | 2.0 | 5.0 | 0.00 | 0.02 | 0.00 | 58 | 1014.3 |
| 20260508130904 | 71 | 284 | 1.0 | 3.0 | 0.00 | 0.02 | 0.00 | 57 | 1014.3 |
| 20260508130405 | 70 | 355 | 1.0 | 3.0 | 0.00 | 0.02 | 0.00 | 58 | 1014.3 |
| 20260508124905 | 70 | 248 | 1.0 | 5.0 | 0.00 | 0.02 | 0.00 | 60 | 1014.3 |
| 20260508124405 | 69 | 338 | 1.0 | 5.0 | 0.00 | 0.02 | 0.00 | 58 | 1014.4 |
| 20260508123905 | 69 | 131 | 2.0 | 3.0 | 0.00 | 0.02 | 0.00 | 59 | 1014.5 |
| 20260508123404 | 69 | 351 | 2.0 | 6.0 | 0.00 | 0.02 | 0.00 | 59 | 1014.4 |
| 20260508121904 | 69 | 227 | 1.0 | 3.0 | 0.00 | 0.02 | 0.00 | 60 | 1014.5 |
| 20260508121404 | 69 | 201 | 3.0 | 9.0 | 0.00 | 0.02 | 0.00 | 60 | 1014.4 |
| 20260508120905 | 69 | 205 | 2.0 | 3.0 | 0.00 | 0.02 | 0.00 | 61 | 1014.5 |
| 20260508120404 | 69 | 237 | 1.0 | 3.0 | 0.00 | 0.02 | 0.00 | 64 | 1014.5 |
| 20260508114406 | 70 | 186 | 1.0 | 3.0 | 0.00 | 0.02 | 0.00 | 61 | 1014.5 |
| 20260508113907 | 71 | 173 | 1.0 | 3.0 | 0.00 | 0.02 | 0.00 | 59 | 1014.4 |
| 20260508111920 | 72 | 203 | 1.0 | 3.0 | 0.00 | 0.02 | 0.00 | 55 | 1014.3 |
| 20260508111405 | 71 | 239 | 1.0 | 3.0 | 0.00 | 0.02 | 0.00 | 57 | 1014.3 |
| 20260508110910 | 70 | 206 | 0.0 | 2.0 | 0.00 | 0.02 | 0.00 | 57 | 1014.4 |
| 20260508110406 | 70 | 239 | 0.0 | 2.0 | 0.00 | 0.02 | 0.00 | 56 | 1014.4 |
| 20260508104905 | 70 | 202 | 0.0 | 2.0 | 0.00 | 0.02 | 0.00 | 55 | 1014.5 |
| 20260508104406 | 70 | 249 | 0.0 | 1.0 | 0.00 | 0.02 | 0.00 | 55 | 1014.4 |
| 20260508103904 | 70 | 249 | 1.0 | 1.0 | 0.00 | 0.02 | 0.00 | 53 | 1014.4 |
| 20260508103404 | 70 | 249 | 0.0 | 2.0 | 0.00 | 0.02 | 0.00 | 54 | 1014.5 |
| 20260508101405 | 70 | 234 | 0.0 | 1.0 | 0.00 | 0.02 | 0.00 | 55 | 1014.5 |
| 20260508100904 | 70 | 234 | 0.0 | 1.0 | 0.00 | 0.02 | 0.00 | 54 | 1014.5 |
| 20260508100406 | 70 | 234 | 0.0 | 2.0 | 0.00 | 0.02 | 0.00 | 56 | 1014.4 |
| 20260508094405 | 70 | 234 | 0.0 | 2.0 | 0.00 | 0.02 | 0.00 | 58 | 1014.4 |
| 20260508093905 | 69 | 234 | 1.0 | 2.0 | 0.00 | 0.02 | 0.00 | 54 | 1014.4 |
| 20260508093404 | 69 | 234 | 0.0 | 1.0 | 0.00 | 0.02 | 0.00 | 58 | 1014.3 |
| 20260508091407 | 68 | 234 | 0.0 | 1.0 | 0.00 | 0.02 | 0.00 | 59 | 1014.3 |
| 20260508090908 | 68 | 234 | 0.0 | 1.0 | 0.00 | 0.02 | 0.00 | 65 | 1014.4 |
| 20260508090406 | 67 | 234 | 0.0 | 1.0 | 0.00 | 0.02 | 0.00 | 63 | 1014.2 |
| 20260508084907 | 67 | 234 | 0.0 | 1.0 | 0.00 | 0.02 | 0.00 | 60 | 1014.2 |
| 20260508083907 | 67 | 234 | 0.0 | 1.0 | 0.00 | 0.02 | 0.00 | 60 | 1014.2 |
| 20260508081908 | 67 | 230 | 1.0 | 2.0 | 0.00 | 0.02 | 0.00 | 60 | 1014.0 |
| 20260508081407 | 68 | 311 | 0.0 | 2.0 | 0.00 | 0.02 | 0.00 | 61 | 1013.9 |
| 20260508080908 | 68 | 290 | 0.0 | 2.0 | 0.00 | 0.02 | 0.00 | 61 | 1014.0 |
| 20260508080407 | 67 | 231 | 0.0 | 2.0 | 0.00 | 0.02 | 0.00 | 63 | 1014.0 |
| 20260508074907 | 66 | 279 | 0.0 | 1.0 | 0.00 | 0.02 | 0.00 | 66 | 1013.8 |
| 20260508074407 | 66 | 279 | 0.0 | 2.0 | 0.00 | 0.02 | 0.00 | 65 | 1013.8 |
| 20260508071907 | 67 | 302 | 0.0 | 2.0 | 0.00 | 0.02 | 0.00 | 65 | 1013.6 |
| 20260508064908 | 65 | 306 | 0.0 | 1.0 | 0.00 | 0.02 | 0.00 | 67 | 1013.5 |
| 20260508064407 | 65 | 306 | 0.0 | 1.0 | 0.00 | 0.02 | 0.00 | 68 | 1013.5 |
| 20260508063906 | 65 | 285 | 1.0 | 2.0 | 0.00 | 0.02 | 0.00 | 68 | 1013.4 |
| 20260508061908 | 64 | 190 | 0.0 | 2.0 | 0.00 | 0.02 | 0.00 | 66 | 1013.3 |
| 20260508061417 | 64 | 239 | 1.0 | 3.0 | 0.00 | 0.02 | 0.00 | 66 | 1013.2 |
| 20260508060907 | 64 | 228 | 1.0 | 3.0 | 0.00 | 0.02 | 0.00 | 65 | 1013.3 |
| 20260508060407 | 63 | 229 | 1.0 | 3.0 | 0.00 | 0.02 | 0.00 | 66 | 1013.2 |
| 20260508054906 | 63 | 355 | 1.0 | 2.0 | 0.00 | 0.02 | 0.00 | 67 | 1013.1 |
| 20260508054406 | 63 | 240 | 1.0 | 2.0 | 0.00 | 0.02 | 0.00 | 67 | 1013.2 |
| 20260508053906 | 62 | 202 | 1.0 | 3.0 | 0.00 | 0.02 | 0.00 | 67 | 1013.2 |
| 20260508053406 | 62 | 262 | 0.0 | 3.0 | 0.00 | 0.02 | 0.00 | 68 | 1013.1 |
| 20260508051906 | 63 | 207 | 0.0 | 1.0 | 0.00 | 0.02 | 0.00 | 66 | 1013.2 |
| 20260508051406 | 63 | 263 | 1.0 | 5.0 | 0.00 | 0.02 | 0.00 | 65 | 1013.0 |
| 20260508050907 | 63 | 282 | 1.0 | 3.0 | 0.00 | 0.02 | 0.00 | 65 | 1013.0 |
| 20260508050406 | 63 | 256 | 1.0 | 5.0 | 0.00 | 0.02 | 0.00 | 65 | 1012.9 |
| 20260508044906 | 62 | 105 | 1.0 | 7.0 | 0.00 | 0.02 | 0.00 | 65 | 1012.7 |
| 20260508044407 | 62 | 183 | 2.0 | 9.0 | 0.00 | 0.02 | 0.00 | 65 | 1012.6 |
| 20260508043409 | 62 | 205 | 1.0 | 5.0 | 0.00 | 0.02 | 0.00 | 66 | 1012.4 |
| 20260508041906 | 61 | 28 | 2.0 | 5.0 | 0.00 | 0.02 | 0.00 | 67 | 1012.3 |
| 20260508040407 | 61 | 21 | 1.0 | 7.0 | 0.00 | 0.02 | 0.00 | 68 | 1012.1 |
| 20260508034906 | 61 | 215 | 1.0 | 3.0 | 0.00 | 0.02 | 0.00 | 68 | 1012.0 |
| 20260508034406 | 61 | 289 | 0.0 | 3.0 | 0.00 | 0.02 | 0.00 | 68 | 1012.0 |
| 20260508033406 | 61 | 182 | 1.0 | 2.0 | 0.00 | 0.02 | 0.00 | 68 | 1012.1 |
| 20260508031906 | 61 | 205 | 2.0 | 3.0 | 0.00 | 0.02 | 0.00 | 68 | 1012.0 |
| 20260508031406 | 61 | 44 | 2.0 | 3.0 | 0.00 | 0.02 | 0.00 | 69 | 1012.0 |
| 20260508030906 | 61 | 78 | 2.0 | 5.0 | 0.00 | 0.02 | 0.00 | 69 | 1012.0 |
| 20260508030406 | 61 | 207 | 0.0 | 5.0 | 0.00 | 0.02 | 0.00 | 69 | 1012.2 |
| 20260508024907 | 60 | 51 | 1.0 | 3.0 | 0.00 | 0.02 | 0.00 | 72 | 1012.2 |
| 20260508024406 | 59 | 92 | 1.0 | 5.0 | 0.00 | 0.02 | 0.00 | 74 | 1012.4 |
| 20260508021908 | 58 | 209 | 1.0 | 3.0 | 0.00 | 0.02 | 0.00 | 78 | 1012.5 |
| 20260508021409 | 58 | 81 | 0.0 | 3.0 | 0.00 | 0.02 | 0.00 | 79 | 1012.5 |
| 20260508020907 | 58 | 16 | 1.0 | 2.0 | 0.00 | 0.02 | 0.00 | 80 | 1012.6 |
| 20260508020406 | 58 | 24 | 1.0 | 6.0 | 0.00 | 0.02 | 0.00 | 80 | 1012.7 |
| 20260508014906 | 57 | 38 | 1.0 | 3.0 | 0.00 | 0.02 | 0.00 | 81 | 1012.9 |
| 20260508013906 | 57 | 41 | 1.0 | 2.0 | 0.00 | 0.02 | 0.00 | 82 | 1013.2 |
| 20260508013406 | 57 | 51 | 1.0 | 3.0 | 0.00 | 0.02 | 0.00 | 83 | 1013.1 |
| 20260508011906 | 57 | 43 | 2.0 | 3.0 | 0.00 | 0.02 | 0.00 | 85 | 1013.3 |
| 20260508011407 | 56 | 31 | 2.0 | 3.0 | 0.00 | 0.02 | 0.00 | 85 | 1013.3 |
| 20260508010906 | 56 | 42 | 2.0 | 3.0 | 0.00 | 0.02 | 0.00 | 86 | 1013.3 |
| 20260508010417 | 56 | 44 | 2.0 | 3.0 | 0.00 | 0.02 | 0.00 | 86 | 1013.4 |
| 20260508004906 | 56 | 35 | 2.0 | 3.0 | 0.00 | 0.02 | 0.00 | 87 | 1013.4 |
| 20260508004406 | 56 | 35 | 2.0 | 3.0 | 0.00 | 0.02 | 0.00 | 87 | 1013.5 |
| 20260508003407 | 56 | 40 | 1.0 | 3.0 | 0.00 | 0.02 | 0.00 | 88 | 1013.6 |
| 20260508001906 | 57 | 29 | 1.0 | 2.0 | 0.00 | 0.02 | 0.00 | 88 | 1013.8 |
| 20260508001406 | 57 | 36 | 2.0 | 2.0 | 0.00 | 0.02 | 0.00 | 88 | 1013.8 |
| 20260508000407 | 57 | 28 | 2.0 | 3.0 | 0.00 | 0.02 | 0.00 | 88 | 1014.0 |
| 20260507234406 | 57 | 18 | 2.0 | 3.0 | 0.00 | 0.02 | 0.00 | 89 | 1014.2 |
| 20260507233906 | 57 | 21 | 2.0 | 3.0 | 0.00 | 0.02 | 0.00 | 89 | 1014.2 |
| 20260507231905 | 57 | 18 | 2.0 | 3.0 | 0.00 | 0.02 | 0.00 | 89 | 1014.5 |
| 20260507231406 | 57 | 4 | 2.0 | 3.0 | 0.00 | 0.02 | 0.00 | 89 | 1014.5 |
| 20260507230906 | 57 | 31 | 2.0 | 3.0 | 0.00 | 0.02 | 0.00 | 89 | 1014.6 |
| 20260507230405 | 57 | 18 | 2.0 | 3.0 | 0.00 | 0.02 | 0.00 | 89 | 1014.6 |
| 20260507224906 | 57 | 0 | 2.0 | 3.0 | 0.00 | 0.02 | 0.00 | 89 | 1014.7 |
| 20260507224406 | 57 | 35 | 2.0 | 3.0 | 0.00 | 0.02 | 0.00 | 89 | 1014.7 |
| 20260507223405 | 57 | 5 | 2.0 | 3.0 | 0.00 | 0.02 | 0.00 | 89 | 1014.7 |
| 20260507221906 | 57 | 26 | 2.0 | 3.0 | 0.00 | 0.02 | 0.00 | 89 | 1014.6 |
| 20260507221406 | 57 | 21 | 2.0 | 3.0 | 0.00 | 0.02 | 0.00 | 89 | 1014.7 |
| 20260507220906 | 57 | 24 | 2.0 | 3.0 | 0.00 | 0.02 | 0.00 | 89 | 1014.7 |
| 20260507220406 | 57 | 23 | 2.0 | 3.0 | 0.00 | 0.02 | 0.00 | 89 | 1014.8 |
| 20260507214905 | 57 | 19 | 1.0 | 3.0 | 0.00 | 0.02 | 0.02 | 88 | 1014.6 |
| 20260507214406 | 57 | 27 | 1.0 | 3.0 | 0.00 | 0.02 | 0.02 | 88 | 1014.6 |
| 20260507211906 | 58 | 34 | 2.0 | 3.0 | 0.00 | 0.02 | 0.02 | 88 | 1014.5 |
| 20260507211405 | 58 | 24 | 1.0 | 2.0 | 0.00 | 0.02 | 0.02 | 88 | 1014.6 |
| 20260507210906 | 58 | 19 | 2.0 | 3.0 | 0.00 | 0.02 | 0.02 | 87 | 1014.6 |
| 20260507210407 | 58 | 27 | 1.0 | 3.0 | 0.00 | 0.02 | 0.02 | 87 | 1014.6 |
| 20260507204405 | 58 | 11 | 1.0 | 3.0 | 0.00 | 0.02 | 0.02 | 87 | 1014.6 |
| 20260507203906 | 58 | 15 | 2.0 | 3.0 | 0.00 | 0.02 | 0.02 | 87 | 1014.6 |
| 20260507203405 | 58 | 21 | 1.0 | 3.0 | 0.00 | 0.02 | 0.02 | 87 | 1014.6 |
| 20260507201905 | 58 | 28 | 1.0 | 3.0 | 0.00 | 0.02 | 0.02 | 86 | 1014.5 |
| 20260507201405 | 58 | 18 | 1.0 | 2.0 | 0.00 | 0.02 | 0.02 | 86 | 1014.5 |
| 20260507200907 | 58 | 24 | 1.0 | 3.0 | 0.00 | 0.02 | 0.02 | 85 | 1014.6 |
| 20260507200405 | 58 | 28 | 2.0 | 3.0 | 0.00 | 0.02 | 0.02 | 85 | 1014.3 |
| 20260507194909 | 59 | 21 | 1.0 | 3.0 | 0.00 | 0.02 | 0.02 | 84 | 1014.2 |
| 20260507194405 | 59 | 28 | 1.0 | 3.0 | 0.00 | 0.02 | 0.02 | 84 | 1014.2 |
| 20260507193408 | 60 | 16 | 1.0 | 3.0 | 0.00 | 0.02 | 0.02 | 83 | 1014.2 |
| 20260507191908 | 61 | 23 | 1.0 | 2.0 | 0.00 | 0.02 | 0.02 | 82 | 1014.2 |
| 20260507191409 | 61 | 39 | 1.0 | 3.0 | 0.00 | 0.02 | 0.02 | 81 | 1014.2 |
| 20260507190905 | 61 | 5 | 1.0 | 2.0 | 0.00 | 0.02 | 0.02 | 81 | 1014.2 |
| 20260507190405 | 62 | 4 | 0.0 | 2.0 | 0.00 | 0.02 | 0.02 | 80 | 1014.1 |
| 20260507184917 | 62 | 15 | 1.0 | 2.0 | 0.00 | 0.02 | 0.02 | 79 | 1014.1 |
| 20260507184405 | 63 | 145 | 0.0 | 2.0 | 0.00 | 0.02 | 0.02 | 79 | 1014.2 |
| 20260507183912 | 63 | 145 | 0.0 | 1.0 | 0.00 | 0.02 | 0.02 | 79 | 1014.2 |
| 20260507183405 | 63 | 145 | 1.0 | 2.0 | 0.00 | 0.02 | 0.02 | 78 | 1014.2 |
| 20260507181905 | 63 | 102 | 0.0 | 1.0 | 0.00 | 0.02 | 0.02 | 77 | 1014.3 |
| 20260507181420 | 64 | 102 | 0.0 | 0.0 | 0.00 | 0.02 | 0.02 | 77 | 1014.2 |
| 20260507180921 | 64 | 102 | 0.0 | 0.0 | 0.00 | 0.02 | 0.02 | 77 | 1014.0 |
| 20260507180405 | 64 | 101 | 1.0 | 2.0 | 0.00 | 0.02 | 0.02 | 77 | 1014.2 |
| 20260507174905 | 64 | 180 | 0.0 | 1.0 | 0.00 | 0.02 | 0.02 | 76 | 1014.2 |
| 20260507174406 | 64 | 180 | 1.0 | 2.0 | 0.00 | 0.02 | 0.02 | 76 | 1014.2 |
| 20260507173412 | 65 | 225 | 0.0 | 3.0 | 0.00 | 0.02 | 0.02 | 76 | 1014.2 |
| 20260507170916 | 65 | 230 | 1.0 | 3.0 | 0.00 | 0.02 | 0.02 | 76 | 1014.3 |
| 20260507164906 | 65 | 241 | 1.0 | 3.0 | 0.00 | 0.02 | 0.02 | 76 | 1014.0 |
| 20260507164405 | 65 | 202 | 2.0 | 5.0 | 0.00 | 0.02 | 0.02 | 75 | 1014.1 |
| 20260507163905 | 66 | 161 | 1.0 | 3.0 | 0.00 | 0.02 | 0.02 | 76 | 1014.1 |
| 20260507161408 | 66 | 207 | 1.0 | 3.0 | 0.00 | 0.02 | 0.02 | 76 | 1013.9 |
| 20260507160907 | 66 | 154 | 2.0 | 5.0 | 0.00 | 0.02 | 0.02 | 77 | 1014.0 |
| 20260507160405 | 65 | 218 | 1.0 | 7.0 | 0.00 | 0.02 | 0.02 | 77 | 1014.0 |
| 20260507154905 | 66 | 157 | 2.0 | 6.0 | 0.01 | 0.02 | 0.02 | 78 | 1014.1 |
| 20260507154407 | 66 | 164 | 2.0 | 5.0 | 0.02 | 0.02 | 0.02 | 78 | 1014.2 |
| 20260507153904 | 66 | 149 | 1.0 | 3.0 | 0.02 | 0.02 | 0.02 | 78 | 1014.3 |
| 20260507153405 | 66 | 190 | 2.0 | 5.0 | 0.02 | 0.02 | 0.02 | 79 | 1014.3 |
| 20260507151905 | 66 | 157 | 1.0 | 5.0 | 0.02 | 0.02 | 0.02 | 82 | 1014.3 |
| 20260507151405 | 65 | 123 | 0.0 | 3.0 | 0.02 | 0.02 | 0.02 | 84 | 1014.3 |
| 20260507150905 | 64 | 187 | 2.0 | 5.0 | 0.02 | 0.02 | 0.02 | 84 | 1014.4 |
| 20260507143904 | 65 | 167 | 2.0 | 7.0 | 0.00 | 0.00 | 0.00 | 78 | 1014.4 |
| 20260507143406 | 66 | 175 | 3.0 | 7.0 | 0.00 | 0.00 | 0.00 | 77 | 1014.4 |
| 20260507141905 | 68 | 164 | 2.0 | 6.0 | 0.00 | 0.00 | 0.00 | 74 | 1014.5 |
| 20260507141405 | 68 | 175 | 2.0 | 5.0 | 0.00 | 0.00 | 0.00 | 76 | 1014.4 |
| 20260507140906 | 67 | 160 | 2.0 | 6.0 | 0.00 | 0.00 | 0.00 | 75 | 1014.4 |
| 20260507140406 | 66 | 165 | 4.0 | 8.0 | 0.00 | 0.00 | 0.00 | 77 | 1014.6 |